Year,Month,Day,Hour,Minute,Value (Times are PST for windgust in km/hr)
2018,09,08,00,00,16.10
2018,09,08,00,01,16.10
2018,09,08,00,02,11.30
2018,09,08,00,03,11.30
2018,09,08,00,04,17.70
2018,09,08,00,05,14.50
2018,09,08,00,06,14.50
2018,09,08,00,07,8.10
2018,09,08,00,08,8.10
2018,09,08,00,09,12.90
2018,09,08,00,10,11.30
2018,09,08,00,11,11.30
2018,09,08,00,12,9.60
2018,09,08,00,13,14.50
2018,09,08,00,14,12.90
2018,09,08,00,15,19.30
2018,09,08,00,16,14.50
2018,09,08,00,17,12.90
2018,09,08,00,18,14.50
2018,09,08,00,19,17.70
2018,09,08,00,20,19.30
2018,09,08,00,21,14.50
2018,09,08,00,22,16.10
2018,09,08,00,23,14.50
2018,09,08,00,24,14.50
2018,09,08,00,25,16.10
2018,09,08,00,26,17.70
2018,09,08,00,27,19.30
2018,09,08,00,28,14.50
2018,09,08,00,29,14.50
2018,09,08,00,30,16.10
2018,09,08,00,31,17.70
2018,09,08,00,32,14.50
2018,09,08,00,33,17.70
2018,09,08,00,34,19.30
2018,09,08,00,35,19.30
2018,09,08,00,36,17.70
2018,09,08,00,37,19.30
2018,09,08,00,38,12.90
2018,09,08,00,39,14.50
2018,09,08,00,40,14.50
2018,09,08,00,41,14.50
2018,09,08,00,42,14.50
2018,09,08,00,43,16.10
2018,09,08,00,44,11.30
2018,09,08,00,45,16.10
2018,09,08,00,46,16.10
2018,09,08,00,47,14.50
2018,09,08,00,48,12.90
2018,09,08,00,49,12.90
2018,09,08,00,50,19.30
2018,09,08,00,51,17.70
2018,09,08,00,52,17.70
2018,09,08,00,53,19.30
2018,09,08,00,54,12.90
2018,09,08,00,55,16.10
2018,09,08,00,56,20.90
2018,09,08,00,57,20.90
2018,09,08,00,58,17.70
2018,09,08,00,59,16.10
2018,09,08,01,00,12.90
2018,09,08,01,01,12.90
2018,09,08,01,02,14.50
2018,09,08,01,03,14.50
2018,09,08,01,04,11.30
2018,09,08,01,05,11.30
2018,09,08,01,06,19.30
2018,09,08,01,07,14.50
2018,09,08,01,08,16.10
2018,09,08,01,09,14.50
2018,09,08,01,10,12.90
2018,09,08,01,11,12.90
2018,09,08,01,12,9.60
2018,09,08,01,13,11.30
2018,09,08,01,14,14.50
2018,09,08,01,15,14.50
2018,09,08,01,16,12.90
2018,09,08,01,17,14.50
2018,09,08,01,18,11.30
2018,09,08,01,19,12.90
2018,09,08,01,20,12.90
2018,09,08,01,21,11.30
2018,09,08,01,22,11.30
2018,09,08,01,23,11.30
2018,09,08,01,24,14.50
2018,09,08,01,25,12.90
2018,09,08,01,26,11.30
2018,09,08,01,27,17.70
2018,09,08,01,28,17.70
2018,09,08,01,29,12.90
2018,09,08,01,30,12.90
2018,09,08,01,31,17.70
2018,09,08,01,32,12.90
2018,09,08,01,33,14.50
2018,09,08,01,34,12.90
2018,09,08,01,35,14.50
2018,09,08,01,36,12.90
2018,09,08,01,37,14.50
2018,09,08,01,38,12.90
2018,09,08,01,39,11.30
2018,09,08,01,40,11.30
2018,09,08,01,41,14.50
2018,09,08,01,42,11.30
2018,09,08,01,43,6.40
2018,09,08,01,44,8.10
2018,09,08,01,45,6.40
2018,09,08,01,46,9.60
2018,09,08,01,47,11.30
2018,09,08,01,48,6.40
2018,09,08,01,49,6.40
2018,09,08,01,50,8.10
2018,09,08,01,51,3.20
2018,09,08,01,52,3.20
2018,09,08,01,53,6.40
2018,09,08,01,54,4.80
2018,09,08,01,55,6.40
2018,09,08,01,56,6.40
2018,09,08,01,57,9.60
2018,09,08,01,58,11.30
2018,09,08,01,59,6.40
2018,09,08,02,00,12.90
2018,09,08,02,01,8.10
2018,09,08,02,02,9.60
2018,09,08,02,03,14.50
2018,09,08,02,04,14.50
2018,09,08,02,05,14.50
2018,09,08,02,06,16.10
2018,09,08,02,07,8.10
2018,09,08,02,08,11.30
2018,09,08,02,09,12.90
2018,09,08,02,10,11.30
2018,09,08,02,11,16.10
2018,09,08,02,12,11.30
2018,09,08,02,13,16.10
2018,09,08,02,14,6.40
2018,09,08,02,15,6.40
2018,09,08,02,16,9.60
2018,09,08,02,17,12.90
2018,09,08,02,18,14.50
2018,09,08,02,19,6.40
2018,09,08,02,20,12.90
2018,09,08,02,21,11.30
2018,09,08,02,22,14.50
2018,09,08,02,23,12.90
2018,09,08,02,24,14.50
2018,09,08,02,25,14.50
2018,09,08,02,26,16.10
2018,09,08,02,27,14.50
2018,09,08,02,28,16.10
2018,09,08,02,29,17.70
2018,09,08,02,30,17.70
2018,09,08,02,31,16.10
2018,09,08,02,32,12.90
2018,09,08,02,33,14.50
2018,09,08,02,34,17.70
2018,09,08,02,35,17.70
2018,09,08,02,36,17.70
2018,09,08,02,37,17.70
2018,09,08,02,38,14.50
2018,09,08,02,39,14.50
2018,09,08,02,40,12.90
2018,09,08,02,41,17.70
2018,09,08,02,42,19.30
2018,09,08,02,43,12.90
2018,09,08,02,44,9.60
2018,09,08,02,45,16.10
2018,09,08,02,46,12.90
2018,09,08,02,47,16.10
2018,09,08,02,48,11.30
2018,09,08,02,49,12.90
2018,09,08,02,50,16.10
2018,09,08,02,51,12.90
2018,09,08,02,52,12.90
2018,09,08,02,53,11.30
2018,09,08,02,54,12.90
2018,09,08,02,55,12.90
2018,09,08,02,56,16.10
2018,09,08,02,57,11.30
2018,09,08,02,58,12.90
2018,09,08,02,59,12.90
2018,09,08,03,00,14.50
2018,09,08,03,01,12.90
2018,09,08,03,02,14.50
2018,09,08,03,03,11.30
2018,09,08,03,04,11.30
2018,09,08,03,05,8.10
2018,09,08,03,06,20.90
2018,09,08,03,07,9.60
2018,09,08,03,08,17.70
2018,09,08,03,09,16.10
2018,09,08,03,10,16.10
2018,09,08,03,11,12.90
2018,09,08,03,12,16.10
2018,09,08,03,13,17.70
2018,09,08,03,14,16.10
2018,09,08,03,15,19.30
2018,09,08,03,16,14.50
2018,09,08,03,17,14.50
2018,09,08,03,18,16.10
2018,09,08,03,19,12.90
2018,09,08,03,20,16.10
2018,09,08,03,21,16.10
2018,09,08,03,22,16.10
2018,09,08,03,23,14.50
2018,09,08,03,24,19.30
2018,09,08,03,25,16.10
2018,09,08,03,26,12.90
2018,09,08,03,27,16.10
2018,09,08,03,28,12.90
2018,09,08,03,29,14.50
2018,09,08,03,30,12.90
2018,09,08,03,31,17.70
2018,09,08,03,32,14.50
2018,09,08,03,33,12.90
2018,09,08,03,34,14.50
2018,09,08,03,35,14.50
2018,09,08,03,36,14.50
2018,09,08,03,37,17.70
2018,09,08,03,38,16.10
2018,09,08,03,39,14.50
2018,09,08,03,40,11.30
2018,09,08,03,41,12.90
2018,09,08,03,42,16.10
2018,09,08,03,43,14.50
2018,09,08,03,44,12.90
2018,09,08,03,45,16.10
2018,09,08,03,46,12.90
2018,09,08,03,47,14.50
2018,09,08,03,48,12.90
2018,09,08,03,49,14.50
2018,09,08,03,50,12.90
2018,09,08,03,51,11.30
2018,09,08,03,52,12.90
2018,09,08,03,53,12.90
2018,09,08,03,54,12.90
2018,09,08,03,55,8.10
2018,09,08,03,56,12.90
2018,09,08,03,57,12.90
2018,09,08,03,58,14.50
2018,09,08,03,59,12.90
2018,09,08,04,00,11.30
2018,09,08,04,01,9.60
2018,09,08,04,02,11.30
2018,09,08,04,03,11.30
2018,09,08,04,04,16.10
2018,09,08,04,05,11.30
2018,09,08,04,06,12.90
2018,09,08,04,07,16.10
2018,09,08,04,08,12.90
2018,09,08,04,09,19.30
2018,09,08,04,10,16.10
2018,09,08,04,11,16.10
2018,09,08,04,12,17.70
2018,09,08,04,13,16.10
2018,09,08,04,14,16.10
2018,09,08,04,15,12.90
2018,09,08,04,16,14.50
2018,09,08,04,17,12.90
2018,09,08,04,18,14.50
2018,09,08,04,19,12.90
2018,09,08,04,20,11.30
2018,09,08,04,21,8.10
2018,09,08,04,22,12.90
2018,09,08,04,23,12.90
2018,09,08,04,24,11.30
2018,09,08,04,25,12.90
2018,09,08,04,26,17.70
2018,09,08,04,27,12.90
2018,09,08,04,28,11.30
2018,09,08,04,29,11.30
2018,09,08,04,30,9.60
2018,09,08,04,31,14.50
2018,09,08,04,32,11.30
2018,09,08,04,33,16.10
2018,09,08,04,34,17.70
2018,09,08,04,35,14.50
2018,09,08,04,36,14.50
2018,09,08,04,37,12.90
2018,09,08,04,38,16.10
2018,09,08,04,39,12.90
2018,09,08,04,40,16.10
2018,09,08,04,41,14.50
2018,09,08,04,42,12.90
2018,09,08,04,43,11.30
2018,09,08,04,44,8.10
2018,09,08,04,45,9.60
2018,09,08,04,46,11.30
2018,09,08,04,47,11.30
2018,09,08,04,48,6.40
2018,09,08,04,49,6.40
2018,09,08,04,50,6.40
2018,09,08,04,51,6.40
2018,09,08,04,52,4.80
2018,09,08,04,53,4.80
2018,09,08,04,54,4.80
2018,09,08,04,55,3.20
2018,09,08,04,56,1.60
2018,09,08,04,57,4.80
2018,09,08,04,58,14.50
2018,09,08,04,59,11.30
2018,09,08,05,00,16.10
2018,09,08,05,01,8.10
2018,09,08,05,02,9.60
2018,09,08,05,03,9.60
2018,09,08,05,04,9.60
2018,09,08,05,05,6.40
2018,09,08,05,06,6.40
2018,09,08,05,07,6.40
2018,09,08,05,08,6.40
2018,09,08,05,09,6.40
2018,09,08,05,10,6.40
2018,09,08,05,11,8.10
2018,09,08,05,12,12.90
2018,09,08,05,13,9.60
2018,09,08,05,14,8.10
2018,09,08,05,15,11.30
2018,09,08,05,16,6.40
2018,09,08,05,17,11.30
2018,09,08,05,18,22.50
2018,09,08,05,19,12.90
2018,09,08,05,20,11.30
2018,09,08,05,21,11.30
2018,09,08,05,22,6.40
2018,09,08,05,23,9.60
2018,09,08,05,24,11.30
2018,09,08,05,25,12.90
2018,09,08,05,26,9.60
2018,09,08,05,27,11.30
2018,09,08,05,28,8.10
2018,09,08,05,29,6.40
2018,09,08,05,30,8.10
2018,09,08,05,31,8.10
2018,09,08,05,32,6.40
2018,09,08,05,33,4.80
2018,09,08,05,34,8.10
2018,09,08,05,35,8.10
2018,09,08,05,36,6.40
2018,09,08,05,37,6.40
2018,09,08,05,38,6.40
2018,09,08,05,39,6.40
2018,09,08,05,40,9.60
2018,09,08,05,41,11.30
2018,09,08,05,42,9.60
2018,09,08,05,43,6.40
2018,09,08,05,44,6.40
2018,09,08,05,45,9.60
2018,09,08,05,46,11.30
2018,09,08,05,47,9.60
2018,09,08,05,48,12.90
2018,09,08,05,49,14.50
2018,09,08,05,50,12.90
2018,09,08,05,51,14.50
2018,09,08,05,52,11.30
2018,09,08,05,53,14.50
2018,09,08,05,54,12.90
2018,09,08,05,55,12.90
2018,09,08,05,56,16.10
2018,09,08,05,57,16.10
2018,09,08,05,58,16.10
2018,09,08,05,59,14.50
2018,09,08,06,00,12.90
2018,09,08,06,01,14.50
2018,09,08,06,02,12.90
2018,09,08,06,03,14.50
2018,09,08,06,04,12.90
2018,09,08,06,05,14.50
2018,09,08,06,06,8.10
2018,09,08,06,07,16.10
2018,09,08,06,08,16.10
2018,09,08,06,09,12.90
2018,09,08,06,10,11.30
2018,09,08,06,11,12.90
2018,09,08,06,12,8.10
2018,09,08,06,13,16.10
2018,09,08,06,14,16.10
2018,09,08,06,15,16.10
2018,09,08,06,16,12.90
2018,09,08,06,17,11.30
2018,09,08,06,18,8.10
2018,09,08,06,19,9.60
2018,09,08,06,20,11.30
2018,09,08,06,21,9.60
2018,09,08,06,22,8.10
2018,09,08,06,23,6.40
2018,09,08,06,24,4.80
2018,09,08,06,25,6.40
2018,09,08,06,26,4.80
2018,09,08,06,27,4.80
2018,09,08,06,28,3.20
2018,09,08,06,29,1.60
2018,09,08,06,30,1.60
2018,09,08,06,31,1.60
2018,09,08,06,37,1.60
2018,09,08,06,38,1.60
2018,09,08,06,40,1.60
2018,09,08,06,41,1.60
2018,09,08,06,42,1.60
2018,09,08,06,44,1.60
2018,09,08,06,45,1.60
2018,09,08,06,46,3.20
2018,09,08,06,47,1.60
2018,09,08,06,52,4.80
2018,09,08,06,53,4.80
2018,09,08,06,54,1.60
2018,09,08,06,56,1.60
2018,09,08,06,57,1.60
2018,09,08,06,58,3.20
2018,09,08,06,59,3.20
2018,09,08,07,00,1.60
2018,09,08,07,41,1.60
2018,09,08,07,42,3.20
2018,09,08,07,43,3.20
2018,09,08,07,44,3.20
2018,09,08,07,48,1.60
2018,09,08,07,49,3.20
2018,09,08,07,50,3.20
2018,09,08,07,51,3.20
2018,09,08,07,52,3.20
2018,09,08,07,53,1.60
2018,09,08,07,54,1.60
2018,09,08,07,55,1.60
2018,09,08,07,56,3.20
2018,09,08,07,57,1.60
2018,09,08,07,58,1.60
2018,09,08,07,59,1.60
2018,09,08,08,00,1.60
2018,09,08,08,43,3.20
2018,09,08,08,44,4.80
2018,09,08,08,45,4.80
2018,09,08,08,46,4.80
2018,09,08,08,47,4.80
2018,09,08,08,48,6.40
2018,09,08,08,49,4.80
2018,09,08,08,50,6.40
2018,09,08,08,51,4.80
2018,09,08,08,52,4.80
2018,09,08,08,53,6.40
2018,09,08,08,54,4.80
2018,09,08,08,55,3.20
2018,09,08,08,56,4.80
2018,09,08,08,57,6.40
2018,09,08,08,58,9.60
2018,09,08,08,59,9.60
2018,09,08,09,00,6.40
2018,09,08,09,01,9.60
2018,09,08,09,02,6.40
2018,09,08,09,03,6.40
2018,09,08,09,04,8.10
2018,09,08,09,05,8.10
2018,09,08,09,06,9.60
2018,09,08,09,07,11.30
2018,09,08,09,08,9.60
2018,09,08,09,09,14.50
2018,09,08,09,10,8.10
2018,09,08,09,11,16.10
2018,09,08,09,12,17.70
2018,09,08,09,13,20.90
2018,09,08,09,14,20.90
2018,09,08,09,15,20.90
2018,09,08,09,16,17.70
2018,09,08,09,17,17.70
2018,09,08,09,18,17.70
2018,09,08,09,19,20.90
2018,09,08,09,20,17.70
2018,09,08,09,21,14.50
2018,09,08,09,22,9.60
2018,09,08,09,23,16.10
2018,09,08,09,24,20.90
2018,09,08,09,25,14.50
2018,09,08,09,26,22.50
2018,09,08,09,27,16.10
2018,09,08,09,28,16.10
2018,09,08,09,29,20.90
2018,09,08,09,30,24.20
2018,09,08,09,31,19.30
2018,09,08,09,32,22.50
2018,09,08,09,33,19.30
2018,09,08,09,34,24.20
2018,09,08,09,35,19.30
2018,09,08,09,36,20.90
2018,09,08,09,37,22.50
2018,09,08,09,38,19.30
2018,09,08,09,39,22.50
2018,09,08,09,40,27.40
2018,09,08,09,41,25.70
2018,09,08,09,42,22.50
2018,09,08,09,43,19.30
2018,09,08,09,44,22.50
2018,09,08,09,45,19.30
2018,09,08,09,46,19.30
2018,09,08,09,47,22.50
2018,09,08,09,48,25.70
2018,09,08,09,49,20.90
2018,09,08,09,50,20.90
2018,09,08,09,51,17.70
2018,09,08,09,52,22.50
2018,09,08,09,53,24.20
2018,09,08,09,54,22.50
2018,09,08,09,55,19.30
2018,09,08,09,56,20.90
2018,09,08,09,57,22.50
2018,09,08,09,58,22.50
2018,09,08,09,59,25.70
2018,09,08,10,00,22.50
2018,09,08,10,01,22.50
2018,09,08,10,02,22.50
2018,09,08,10,03,24.20
2018,09,08,10,04,24.20
2018,09,08,10,05,22.50
2018,09,08,10,06,25.70
2018,09,08,10,07,24.20
2018,09,08,10,08,22.50
2018,09,08,10,09,22.50
2018,09,08,10,10,16.10
2018,09,08,10,11,24.20
2018,09,08,10,12,16.10
2018,09,08,10,13,19.30
2018,09,08,10,14,14.50
2018,09,08,10,15,19.30
2018,09,08,10,16,16.10
2018,09,08,10,17,17.70
2018,09,08,10,18,19.30
2018,09,08,10,19,20.90
2018,09,08,10,20,20.90
2018,09,08,10,21,24.20
2018,09,08,10,22,24.20
2018,09,08,10,23,24.20
2018,09,08,10,24,19.30
2018,09,08,10,25,19.30
2018,09,08,10,26,20.90
2018,09,08,10,27,19.30
2018,09,08,10,28,22.50
2018,09,08,10,29,19.30
2018,09,08,10,30,19.30
2018,09,08,10,31,19.30
2018,09,08,10,32,22.50
2018,09,08,10,33,19.30
2018,09,08,10,34,25.70
2018,09,08,10,35,22.50
2018,09,08,10,36,24.20
2018,09,08,10,37,20.90
2018,09,08,10,38,24.20
2018,09,08,10,39,25.70
2018,09,08,10,40,24.20
2018,09,08,10,41,20.90
2018,09,08,10,42,19.30
2018,09,08,10,43,22.50
2018,09,08,10,44,20.90
2018,09,08,10,45,16.10
2018,09,08,10,46,17.70
2018,09,08,10,47,20.90
2018,09,08,10,48,25.70
2018,09,08,10,49,17.70
2018,09,08,10,50,16.10
2018,09,08,10,51,17.70
2018,09,08,10,52,20.90
2018,09,08,10,53,20.90
2018,09,08,10,54,22.50
2018,09,08,10,55,17.70
2018,09,08,10,56,19.30
2018,09,08,10,57,16.10
2018,09,08,10,58,16.10
2018,09,08,10,59,20.90
2018,09,08,11,00,19.30
2018,09,08,11,01,20.90
2018,09,08,11,02,24.20
2018,09,08,11,03,24.20
2018,09,08,11,04,20.90
2018,09,08,11,05,24.20
2018,09,08,11,06,20.90
2018,09,08,11,07,22.50
2018,09,08,11,08,22.50
2018,09,08,11,09,17.70
2018,09,08,11,10,22.50
2018,09,08,11,11,20.90
2018,09,08,11,12,24.20
2018,09,08,11,13,22.50
2018,09,08,11,14,22.50
2018,09,08,11,15,19.30
2018,09,08,11,16,16.10
2018,09,08,11,17,19.30
2018,09,08,11,18,16.10
2018,09,08,11,19,19.30
2018,09,08,11,20,16.10
2018,09,08,11,21,20.90
2018,09,08,11,22,19.30
2018,09,08,11,23,14.50
2018,09,08,11,24,16.10
2018,09,08,11,25,14.50
2018,09,08,11,26,16.10
2018,09,08,11,27,20.90
2018,09,08,11,28,19.30
2018,09,08,11,29,17.70
2018,09,08,11,30,17.70
2018,09,08,11,31,16.10
2018,09,08,11,32,17.70
2018,09,08,11,33,17.70
2018,09,08,11,34,16.10
2018,09,08,11,35,16.10
2018,09,08,11,36,20.90
2018,09,08,11,37,19.30
2018,09,08,11,38,16.10
2018,09,08,11,39,14.50
2018,09,08,11,40,14.50
2018,09,08,11,41,19.30
2018,09,08,11,42,16.10
2018,09,08,11,43,12.90
2018,09,08,11,44,12.90
2018,09,08,11,45,17.70
2018,09,08,11,46,17.70
2018,09,08,11,47,14.50
2018,09,08,11,48,16.10
2018,09,08,11,49,17.70
2018,09,08,11,50,22.50
2018,09,08,11,51,14.50
2018,09,08,11,52,17.70
2018,09,08,11,53,20.90
2018,09,08,11,54,14.50
2018,09,08,11,55,16.10
2018,09,08,11,56,22.50
2018,09,08,11,57,19.30
2018,09,08,11,58,16.10
2018,09,08,11,59,16.10
2018,09,08,12,00,16.10
2018,09,08,12,01,14.50
2018,09,08,12,02,17.70
2018,09,08,12,03,12.90
2018,09,08,12,04,16.10
2018,09,08,12,05,17.70
2018,09,08,12,06,20.90
2018,09,08,12,07,17.70
2018,09,08,12,08,11.30
2018,09,08,12,09,17.70
2018,09,08,12,10,22.50
2018,09,08,12,11,17.70
2018,09,08,12,12,16.10
2018,09,08,12,13,14.50
2018,09,08,12,14,24.20
2018,09,08,12,15,25.70
2018,09,08,12,16,16.10
2018,09,08,12,17,22.50
2018,09,08,12,18,19.30
2018,09,08,12,19,24.20
2018,09,08,12,20,19.30
2018,09,08,12,21,24.20
2018,09,08,12,22,22.50
2018,09,08,12,23,24.20
2018,09,08,12,24,20.90
2018,09,08,12,25,17.70
2018,09,08,12,26,22.50
2018,09,08,12,27,17.70
2018,09,08,12,28,17.70
2018,09,08,12,29,17.70
2018,09,08,12,30,19.30
2018,09,08,12,31,20.90
2018,09,08,12,32,14.50
2018,09,08,12,33,20.90
2018,09,08,12,34,25.70
2018,09,08,12,35,20.90
2018,09,08,12,36,17.70
2018,09,08,12,37,16.10
2018,09,08,12,38,17.70
2018,09,08,12,39,14.50
2018,09,08,12,40,24.20
2018,09,08,12,41,17.70
2018,09,08,12,42,19.30
2018,09,08,12,43,19.30
2018,09,08,12,44,17.70
2018,09,08,12,45,12.90
2018,09,08,12,46,12.90
2018,09,08,12,47,12.90
2018,09,08,12,48,16.10
2018,09,08,12,49,17.70
2018,09,08,12,50,17.70
2018,09,08,12,51,11.30
2018,09,08,12,52,16.10
2018,09,08,12,53,16.10
2018,09,08,12,54,14.50
2018,09,08,12,55,14.50
2018,09,08,12,56,19.30
2018,09,08,12,57,17.70
2018,09,08,12,58,19.30
2018,09,08,12,59,17.70
2018,09,08,13,00,12.90
2018,09,08,13,01,11.30
2018,09,08,13,02,12.90
2018,09,08,13,03,20.90
2018,09,08,13,04,17.70
2018,09,08,13,05,14.50
2018,09,08,13,06,17.70
2018,09,08,13,07,16.10
2018,09,08,13,08,16.10
2018,09,08,13,09,19.30
2018,09,08,13,10,19.30
2018,09,08,13,11,19.30
2018,09,08,13,12,17.70
2018,09,08,13,13,16.10
2018,09,08,13,14,19.30
2018,09,08,13,15,16.10
2018,09,08,13,16,16.10
2018,09,08,13,17,16.10
2018,09,08,13,18,19.30
2018,09,08,13,19,17.70
2018,09,08,13,20,17.70
2018,09,08,13,21,12.90
2018,09,08,13,22,16.10
2018,09,08,13,23,12.90
2018,09,08,13,24,16.10
2018,09,08,13,25,11.30
2018,09,08,13,26,12.90
2018,09,08,13,27,19.30
2018,09,08,13,28,12.90
2018,09,08,13,29,17.70
2018,09,08,13,30,16.10
2018,09,08,13,31,16.10
2018,09,08,13,32,16.10
2018,09,08,13,33,16.10
2018,09,08,13,34,17.70
2018,09,08,13,35,16.10
2018,09,08,13,36,17.70
2018,09,08,13,37,16.10
2018,09,08,13,38,11.30
2018,09,08,13,39,12.90
2018,09,08,13,40,19.30
2018,09,08,13,41,19.30
2018,09,08,13,42,19.30
2018,09,08,13,43,17.70
2018,09,08,13,44,20.90
2018,09,08,13,45,19.30
2018,09,08,13,46,19.30
2018,09,08,13,47,17.70
2018,09,08,13,48,17.70
2018,09,08,13,49,17.70
2018,09,08,13,50,16.10
2018,09,08,13,51,22.50
2018,09,08,13,52,22.50
2018,09,08,13,53,16.10
2018,09,08,13,54,12.90
2018,09,08,13,55,24.20
2018,09,08,13,56,14.50
2018,09,08,13,57,16.10
2018,09,08,13,58,20.90
2018,09,08,13,59,24.20
2018,09,08,14,00,19.30
2018,09,08,14,01,14.50
2018,09,08,14,02,24.20
2018,09,08,14,03,32.20
2018,09,08,14,04,25.70
2018,09,08,14,05,27.40
2018,09,08,14,06,24.20
2018,09,08,14,07,20.90
2018,09,08,14,08,19.30
2018,09,08,14,09,17.70
2018,09,08,14,10,20.90
2018,09,08,14,11,20.90
2018,09,08,14,12,19.30
2018,09,08,14,13,19.30
2018,09,08,14,14,19.30
2018,09,08,14,15,12.90
2018,09,08,14,16,14.50
2018,09,08,14,17,12.90
2018,09,08,14,18,11.30
2018,09,08,14,19,20.90
2018,09,08,14,20,16.10
2018,09,08,14,21,8.10
2018,09,08,14,22,16.10
2018,09,08,14,23,12.90
2018,09,08,14,24,8.10
2018,09,08,14,25,19.30
2018,09,08,14,26,17.70
2018,09,08,14,27,19.30
2018,09,08,14,28,17.70
2018,09,08,14,29,20.90
2018,09,08,14,30,19.30
2018,09,08,14,31,19.30
2018,09,08,14,32,17.70
2018,09,08,14,33,17.70
2018,09,08,14,34,22.50
2018,09,08,14,35,17.70
2018,09,08,14,36,19.30
2018,09,08,14,37,20.90
2018,09,08,14,38,20.90
2018,09,08,14,39,16.10
2018,09,08,14,40,22.50
2018,09,08,14,41,24.20
2018,09,08,14,42,19.30
2018,09,08,14,43,24.20
2018,09,08,14,44,24.20
2018,09,08,14,45,19.30
2018,09,08,14,46,17.70
2018,09,08,14,47,17.70
2018,09,08,14,48,16.10
2018,09,08,14,49,17.70
2018,09,08,14,50,14.50
2018,09,08,14,51,16.10
2018,09,08,14,52,14.50
2018,09,08,14,53,12.90
2018,09,08,14,54,16.10
2018,09,08,14,55,12.90
2018,09,08,14,56,8.10
2018,09,08,14,57,9.60
2018,09,08,14,58,17.70
2018,09,08,14,59,16.10
2018,09,08,15,00,19.30
2018,09,08,15,01,20.90
2018,09,08,15,02,16.10
2018,09,08,15,03,20.90
2018,09,08,15,04,20.90
2018,09,08,15,05,19.30
2018,09,08,15,06,19.30
2018,09,08,15,07,19.30
2018,09,08,15,08,19.30
2018,09,08,15,09,14.50
2018,09,08,15,10,16.10
2018,09,08,15,11,16.10
2018,09,08,15,12,17.70
2018,09,08,15,13,14.50
2018,09,08,15,14,16.10
2018,09,08,15,15,14.50
2018,09,08,15,16,14.50
2018,09,08,15,17,12.90
2018,09,08,15,18,14.50
2018,09,08,15,19,14.50
2018,09,08,15,20,11.30
2018,09,08,15,21,16.10
2018,09,08,15,22,12.90
2018,09,08,15,23,17.70
2018,09,08,15,24,19.30
2018,09,08,15,25,17.70
2018,09,08,15,26,20.90
2018,09,08,15,27,14.50
2018,09,08,15,28,17.70
2018,09,08,15,29,16.10
2018,09,08,15,30,20.90
2018,09,08,15,31,22.50
2018,09,08,15,32,16.10
2018,09,08,15,33,20.90
2018,09,08,15,34,14.50
2018,09,08,15,35,20.90
2018,09,08,15,36,16.10
2018,09,08,15,37,17.70
2018,09,08,15,38,22.50
2018,09,08,15,39,20.90
2018,09,08,15,40,19.30
2018,09,08,15,41,22.50
2018,09,08,15,42,19.30
2018,09,08,15,43,17.70
2018,09,08,15,44,16.10
2018,09,08,15,45,9.60
2018,09,08,15,46,9.60
2018,09,08,15,47,19.30
2018,09,08,15,48,17.70
2018,09,08,15,49,16.10
2018,09,08,15,50,17.70
2018,09,08,15,51,17.70
2018,09,08,15,52,17.70
2018,09,08,15,53,16.10
2018,09,08,15,54,17.70
2018,09,08,15,55,17.70
2018,09,08,15,56,14.50
2018,09,08,15,57,17.70
2018,09,08,15,58,17.70
2018,09,08,15,59,16.10
2018,09,08,16,00,22.50
2018,09,08,16,01,22.50
2018,09,08,16,02,16.10
2018,09,08,16,03,22.50
2018,09,08,16,04,24.20
2018,09,08,16,05,19.30
2018,09,08,16,06,20.90
2018,09,08,16,07,17.70
2018,09,08,16,08,19.30
2018,09,08,16,09,17.70
2018,09,08,16,10,17.70
2018,09,08,16,11,19.30
2018,09,08,16,12,14.50
2018,09,08,16,13,14.50
2018,09,08,16,14,12.90
2018,09,08,16,15,14.50
2018,09,08,16,16,19.30
2018,09,08,16,17,16.10
2018,09,08,16,18,19.30
2018,09,08,16,19,16.10
2018,09,08,16,20,20.90
2018,09,08,16,21,16.10
2018,09,08,16,22,19.30
2018,09,08,16,23,16.10
2018,09,08,16,24,17.70
2018,09,08,16,25,14.50
2018,09,08,16,26,14.50
2018,09,08,16,27,14.50
2018,09,08,16,28,16.10
2018,09,08,16,29,17.70
2018,09,08,16,30,16.10
2018,09,08,16,31,12.90
2018,09,08,16,32,16.10
2018,09,08,16,33,16.10
2018,09,08,16,34,14.50
2018,09,08,16,35,11.30
2018,09,08,16,36,14.50
2018,09,08,16,37,11.30
2018,09,08,16,38,11.30
2018,09,08,16,39,12.90
2018,09,08,16,40,16.10
2018,09,08,16,41,14.50
2018,09,08,16,42,9.60
2018,09,08,16,43,9.60
2018,09,08,16,44,12.90
2018,09,08,16,45,17.70
2018,09,08,16,46,14.50
2018,09,08,16,47,12.90
2018,09,08,16,48,12.90
2018,09,08,16,49,16.10
2018,09,08,16,50,12.90
2018,09,08,16,51,12.90
2018,09,08,16,52,8.10
2018,09,08,16,53,8.10
2018,09,08,16,54,12.90
2018,09,08,16,55,12.90
2018,09,08,16,56,11.30
2018,09,08,16,57,14.50
2018,09,08,16,58,16.10
2018,09,08,16,59,14.50
2018,09,08,17,00,9.60
2018,09,08,17,01,16.10
2018,09,08,17,02,16.10
2018,09,08,17,03,14.50
2018,09,08,17,04,16.10
2018,09,08,17,05,16.10
2018,09,08,17,06,12.90
2018,09,08,17,07,19.30
2018,09,08,17,08,14.50
2018,09,08,17,09,12.90
2018,09,08,17,10,12.90
2018,09,08,17,11,19.30
2018,09,08,17,12,12.90
2018,09,08,17,13,14.50
2018,09,08,17,14,16.10
2018,09,08,17,15,16.10
2018,09,08,17,16,14.50
2018,09,08,17,17,12.90
2018,09,08,17,18,16.10
2018,09,08,17,19,19.30
2018,09,08,17,20,20.90
2018,09,08,17,21,19.30
2018,09,08,17,22,16.10
2018,09,08,17,23,12.90
2018,09,08,17,24,12.90
2018,09,08,17,25,14.50
2018,09,08,17,26,14.50
2018,09,08,17,27,14.50
2018,09,08,17,28,14.50
2018,09,08,17,29,12.90
2018,09,08,17,30,12.90
2018,09,08,17,31,12.90
2018,09,08,17,32,11.30
2018,09,08,17,33,19.30
2018,09,08,17,34,14.50
2018,09,08,17,35,11.30
2018,09,08,17,36,6.40
2018,09,08,17,37,9.60
2018,09,08,17,38,14.50
2018,09,08,17,39,14.50
2018,09,08,17,40,17.70
2018,09,08,17,41,17.70
2018,09,08,17,42,20.90
2018,09,08,17,43,16.10
2018,09,08,17,44,14.50
2018,09,08,17,45,12.90
2018,09,08,17,46,19.30
2018,09,08,17,47,12.90
2018,09,08,17,48,19.30
2018,09,08,17,49,16.10
2018,09,08,17,50,17.70
2018,09,08,17,51,16.10
2018,09,08,17,52,19.30
2018,09,08,17,53,16.10
2018,09,08,17,54,16.10
2018,09,08,17,55,19.30
2018,09,08,17,56,20.90
2018,09,08,17,57,16.10
2018,09,08,17,58,17.70
2018,09,08,17,59,19.30
2018,09,08,18,00,22.50
2018,09,08,18,01,25.70
2018,09,08,18,02,22.50
2018,09,08,18,03,27.40
2018,09,08,18,04,25.70
2018,09,08,18,05,24.20
2018,09,08,18,06,24.20
2018,09,08,18,07,22.50
2018,09,08,18,08,27.40
2018,09,08,18,09,22.50
2018,09,08,18,10,22.50
2018,09,08,18,11,24.20
2018,09,08,18,12,25.70
2018,09,08,18,13,27.40
2018,09,08,18,14,19.30
2018,09,08,18,15,22.50
2018,09,08,18,16,24.20
2018,09,08,18,17,25.70
2018,09,08,18,18,25.70
2018,09,08,18,19,19.30
2018,09,08,18,20,24.20
2018,09,08,18,21,22.50
2018,09,08,18,22,22.50
2018,09,08,18,23,22.50
2018,09,08,18,24,19.30
2018,09,08,18,25,19.30
2018,09,08,18,26,17.70
2018,09,08,18,27,17.70
2018,09,08,18,28,20.90
2018,09,08,18,29,17.70
2018,09,08,18,30,20.90
2018,09,08,18,31,14.50
2018,09,08,18,32,17.70
2018,09,08,18,33,14.50
2018,09,08,18,34,14.50
2018,09,08,18,35,16.10
2018,09,08,18,36,14.50
2018,09,08,18,37,19.30
2018,09,08,18,38,17.70
2018,09,08,18,39,20.90
2018,09,08,18,40,17.70
2018,09,08,18,41,24.20
2018,09,08,18,42,12.90
2018,09,08,18,43,17.70
2018,09,08,18,44,17.70
2018,09,08,18,45,16.10
2018,09,08,18,46,17.70
2018,09,08,18,47,16.10
2018,09,08,18,48,17.70
2018,09,08,18,49,16.10
2018,09,08,18,50,17.70
2018,09,08,18,51,16.10
2018,09,08,18,52,17.70
2018,09,08,18,53,16.10
2018,09,08,18,54,16.10
2018,09,08,18,55,16.10
2018,09,08,18,56,19.30
2018,09,08,18,57,20.90
2018,09,08,18,58,19.30
2018,09,08,18,59,11.30
2018,09,08,19,00,19.30
2018,09,08,19,01,17.70
2018,09,08,19,02,24.20
2018,09,08,19,03,24.20